User: anonymous   Login
Location: Browne Barr
(41.2080°N, 111.9480°W)
Time: 07:04:55
(UTC+00:00)
Language:

CUTE-I - Orbit

View from above orbital plane
View from above orbital plane
View from above satellite
View from above satellite

Ground track
Ground track

The orbit data is extracted from the following two-line orbital elements,

1 27844U 03031E   21209.91096225  .00000044  00000-0  39454-4 0  9997
2 27844  98.6796 217.4933 0009122 325.1845  34.8735 14.22322405937872
Epoch (UTC): 28 July 2021 21:51:47
Eccentricity: 0.0009122
inclination: 98.6796°
perigee height: 811 km
apogee height: 824 km
right ascension of ascending node: 217.4933°
argument of perigee: 325.1845°
revolutions per day: 14.22322405
mean anomaly at epoch: 34.8735°
orbit number at epoch: 93787

The dashed part of the orbit path shows where the satellite is in the earth's shadow,  

DLR